Kaneohe MCBH, HI

4:54 AM HST on April 24, 2017 (GMT -1000)
Kaneohe Bay Marine Corps Air Facility

Weather History for PHNG - December, 2013

Change the Weather History Date:

Monday, December 23, 2013

  Actual Average Record
Temperature  
Mean Temperature 76 °F -  
Max Temperature 80 °F 76 °F 82 °F (2015)
Min Temperature 71 °F 66 °F 64 °F (1996)
Cooling Degree Days 10    
Growing Degree Days 26 (Base 50)    
Moisture  
Dew Point 65 °F    
Average Humidity 67    
Maximum Humidity 79    
Minimum Humidity 58    
Precipitation  
Precipitation 0.00 in - - ()
Sea Level Pressure  
Sea Level Pressure 30.01 in    
Wind  
Wind Speed 7 mph (ENE)    
Max Wind Speed 10 mph    
Max Gust Speed 18 mph    
Visibility 8 miles    
Events Rain    
Averages and records for this station are not official NWS values.
T = Trace of Precipitation, MM = Missing Value Source: NWS Daily Summary

Daily Weather History Graph

Daily Weather History Graph

Search for Another Location

Airport or City:

Trip Planner

Search our weather history database for the weather conditions in past years. The results will help you decide how hot, cold, wet, or windy it might be!

Date:

Astronomy

Dec. 23, 2013 Rise Set
Actual Time 7:05 AM HST 5:55 PM HST
Civil Twilight 6:41 AM HST 6:19 PM HST
Nautical Twilight 6:13 AM HST 6:47 PM HST
Astronomical Twilight 5:46 AM HST 7:14 PM HST
Moon 11:32 PM HST (12/23) 11:16 AM HST (12/23)
Length of Visible Light 11h 38m
Length of Day
10h 49m
Waning Gibbous, 66% of the Moon is Illuminated
Dec 23
Waning Gibbous
Dec 25
Last Quarter
Jan 1
New
Jan 7
First Quarter
Jan 15
Full

Hourly Weather History & Observations

Time (HST) Temp. Heat Index Dew Point Humidity Pressure Visibility Wind Dir Wind Speed Gust Speed Precip Events Conditions
12:33 AM 71.6 °F - 64.4 °F 78% 29.99 in 5.0 mi North 5.8 mph - N/A Rain Light Rain
12:57 AM 71.6 °F - 64.9 °F 79% 29.97 in 7.0 mi ENE 4.6 mph - N/A   Mostly Cloudy
1:07 AM - - - N/A% 29.99 in 6.2 mi East 3.5 mph - N/A   Scattered Clouds
1:57 AM 71.6 °F - 64.9 °F 79% 29.96 in 9.0 mi SE 4.6 mph - N/A   Mostly Cloudy
2:57 AM 73.4 °F - 66.0 °F 78% 29.97 in 10.0 mi East 4.6 mph - N/A   Mostly Cloudy
3:57 AM 75.4 °F - 66.0 °F 73% 29.97 in 9.0 mi East 6.9 mph - N/A   Scattered Clouds
4:57 AM 73.4 °F - 66.0 °F 78% 29.97 in 10.0 mi East 4.6 mph - N/A   Mostly Cloudy
5:04 AM - - - N/A% 29.99 in 6.2 mi Variable 3.5 mph - N/A   Scattered Clouds
5:57 AM 73.4 °F - 64.9 °F 75% 29.99 in 9.0 mi East 3.5 mph - N/A   Partly Cloudy
6:50 AM 75.2 °F - 66.2 °F 73% 30.01 in 10.0 mi East 4.6 mph - N/A   Mostly Cloudy
6:57 AM 75.2 °F - 66.0 °F 73% 30.00 in 10.0 mi East 8.1 mph - N/A   Partly Cloudy
7:24 AM 75.2 °F - 64.4 °F 69% 30.02 in 6.2 mi Variable 5.8 mph - N/A   Mostly Cloudy
7:42 AM 75.2 °F - 64.4 °F 69% 30.03 in 6.2 mi East 6.9 mph - N/A   Scattered Clouds
7:57 AM 75.2 °F - 64.9 °F 70% 30.02 in 10.0 mi Variable 5.8 mph - N/A   Scattered Clouds
8:47 AM 75.2 °F - 66.2 °F 73% 30.05 in 6.2 mi East 8.1 mph 16.1 mph N/A   Scattered Clouds
8:57 AM 75.2 °F - 66.0 °F 73% 30.04 in 9.0 mi East 9.2 mph - N/A   Scattered Clouds
9:57 AM 75.2 °F - 66.0 °F 73% 30.04 in 9.0 mi East 9.2 mph 18.4 mph N/A   Scattered Clouds
10:57 AM 78.8 °F - 64.9 °F 62% 30.04 in 8.0 mi ENE 8.1 mph 16.1 mph N/A   Mostly Cloudy
11:04 AM 78.8 °F - 66.2 °F 65% 30.05 in 6.2 mi ENE 10.4 mph 17.3 mph N/A   Overcast
11:15 AM 80.6 °F 82.7 °F 66.2 °F 61% 30.05 in 6.2 mi East 10.4 mph 17.3 mph N/A   Scattered Clouds
11:57 AM 80.8 °F 82.9 °F 66.0 °F 61% 30.02 in 8.0 mi ENE 9.2 mph 16.1 mph N/A   Scattered Clouds
12:52 PM 80.6 °F 82.7 °F 66.2 °F 61% 30.00 in 6.2 mi ENE 9.2 mph - N/A   Mostly Cloudy
12:57 PM 80.6 °F 82.7 °F 66.0 °F 61% 29.99 in 8.0 mi ENE 10.4 mph - N/A   Mostly Cloudy
1:07 PM 80.6 °F 82.7 °F 66.2 °F 61% 30.00 in 6.2 mi ENE 9.2 mph - N/A   Scattered Clouds
1:57 PM 80.6 °F 82.7 °F 66.0 °F 61% 29.97 in 8.0 mi East 10.4 mph - N/A   Scattered Clouds
2:37 PM 80.6 °F 82.3 °F 64.4 °F 58% 29.97 in 6.2 mi ENE 8.1 mph - N/A   Mostly Cloudy
2:57 PM 80.6 °F 82.4 °F 64.9 °F 59% 29.96 in 8.0 mi Variable 6.9 mph - N/A   Mostly Cloudy
3:14 PM 80.6 °F 82.3 °F 64.4 °F 58% 29.97 in 6.2 mi ENE 9.2 mph 16.1 mph N/A   Mostly Cloudy
3:57 PM 80.6 °F 82.4 °F 64.9 °F 59% 29.96 in 8.0 mi ENE 8.1 mph - N/A   Mostly Cloudy
4:06 PM - - - N/A% 29.98 in 6.2 mi ENE 10.4 mph - N/A   Mostly Cloudy
4:17 PM 80.6 °F 82.3 °F 64.4 °F 58% 29.98 in 6.2 mi East 8.1 mph - N/A   Scattered Clouds
4:57 PM 78.8 °F - 64.9 °F 62% 29.98 in 7.0 mi East 9.2 mph - N/A   Scattered Clouds
5:57 PM 78.8 °F - 64.0 °F 60% 30.00 in 6.0 mi ENE 9.2 mph - N/A   Haze
6:57 PM 77.0 °F - 64.9 °F 66% 30.01 in 9.0 mi East 9.2 mph 16.1 mph N/A   Partly Cloudy
7:57 PM 77.0 °F - 64.9 °F 66% 30.04 in 9.0 mi ENE 8.1 mph - N/A   Scattered Clouds
8:57 PM 75.2 °F - 64.9 °F 70% 30.05 in 8.0 mi ENE 8.1 mph - N/A   Scattered Clouds
9:57 PM 77.0 °F - 64.0 °F 64% 30.06 in 8.0 mi East 8.1 mph - N/A   Scattered Clouds
10:57 PM 75.2 °F - 64.9 °F 70% 30.07 in 9.0 mi East 10.4 mph - N/A   Scattered Clouds
11:57 PM 73.4 °F - 64.0 °F 72% 30.06 in 9.0 mi ENE 9.2 mph - N/A   Partly Cloudy